Flag for Austria Weather past 2 weeks in Klagenfurt, Carinthia, Austria

Now
37 °F

Partly sunny.


Feels Like: 37 °F
Forecast: 28 / 44 °F
Wind: 1 mph from North

Location: Klagenfurt-Flughafen

Current Time: Mar 2, 2015 at 9:21:51 AM

Latest Report: Mar 2, 2015 at 8:50 AM


Visibility: N/A

Pressure: 29.80 "Hg

Humidity: 87%

Dew point: 34 °F

Location of KlagenfurtLocation

Historic Weather in Klagenfurt — Graph

°F

Klagenfurt temperature yesterday

Maximum temperature yesterday: 46 °F (at 2:20 PM)
Minimum temperature yesterday: 27 °F (at 5:50 AM)
Average temperature yesterday: 37 °F

Past Weeks' High & Low Weather Summary

 TemperatureHumidityPressure
High52 °F (Feb 28, 2:20 PM)100% (Feb 15, 7:20 AM)30.69 "Hg (Feb 15, 7:20 AM)
Low21 °F (Feb 17, 5:50 AM)37% (Feb 26, 2:50 PM)29.59 "Hg (Feb 23, 4:20 PM)
Average35 °F82%30.03 "Hg
* Reported Feb 15 7:20 AM — Mar 2 7:50 AM, Klagenfurt, Weather by CustomWeather, © 2015

Note: Actual official high and low records may vary slightly from our data, if they occured in-between our weather recording intervals... More about our weather records

Advertising

Klagenfurt weather history for previous 24 hours

 ConditionsComfort  
Time TempWeatherWind HumidityBarometerVisibility
7:50 AM
Mon, Mar 2
36 °FBroken clouds.2 mph87%29.83 "HgN/A
7:20 AM34 °FBroken clouds.3 mph93%29.80 "HgN/A
6:50 AM34 °FPartly sunny.3 mph93%29.80 "HgN/A
6:20 AM34 °FPassing clouds.1 mph87%29.83 "HgN/A
5:50 AM34 °FPartly cloudy.3 mph87%29.83 "HgN/A
5:20 AM32 °FPartly cloudy.1 mph93%29.83 "HgN/A
4:50 AM32 °FPartly cloudy.5 mph93%29.83 "HgN/A
4:20 AM32 °FPassing clouds.3 mph93%29.86 "HgN/A
3:50 AM32 °FPassing clouds.2 mph93%29.86 "HgN/A
2:50 AM32 °FClear.2 mph93%29.89 "Hg10 mi
2:20 AM32 °FClear.1 mph93%29.89 "Hg10 mi
1:50 AM32 °FClear.1 mph93%29.89 "Hg10 mi
1:20 AM32 °FClear.2 mph93%29.89 "Hg10 mi
12:50 AM32 °FClear.5 mph93%29.89 "Hg10 mi
12:20 AM34 °FClear.1 mph87%29.89 "Hg10 mi
11:50 PM
Sun, Mar 1
34 °FClear.3 mph87%29.89 "Hg10 mi
11:20 PM34 °FPassing clouds.3 mph87%29.89 "HgN/A
10:50 PM34 °FPassing clouds.2 mph93%29.89 "HgN/A
10:20 PM36 °FPassing clouds.2 mph87%29.92 "HgN/A
9:50 PM36 °FPassing clouds.2 mph87%29.92 "HgN/A
9:20 PM37 °FPassing clouds.5 mph81%29.92 "HgN/A
8:20 PM37 °FPassing clouds.3 mph87%29.89 "HgN/A
7:50 PM39 °FPassing clouds.3 mph81%29.89 "HgN/A
7:20 PM39 °FPassing clouds.1 mph81%29.89 "HgN/A
6:50 PM41 °FPassing clouds.1 mph76%29.89 "HgN/A
6:20 PM43 °FPassing clouds.1 mph76%29.89 "HgN/A
5:50 PM45 °FPartly cloudy.2 mph71%29.86 "HgN/A
5:20 PM46 °FBroken clouds.2 mph62%29.86 "HgN/A
4:50 PM46 °FPartly sunny.3 mph62%29.86 "HgN/A
4:20 PM46 °FPartly sunny.2 mph62%29.86 "HgN/A
3:50 PM46 °FPartly sunny.1 mph57%29.86 "HgN/A
3:20 PM46 °FPartly sunny.2 mph57%29.86 "HgN/A
2:50 PM46 °FPartly sunny.1 mph57%29.89 "HgN/A
2:20 PM46 °FPartly sunny.2 mph57%29.89 "HgN/A
1:50 PM45 °FMore clouds than sun.3 mph61%29.89 "HgN/A
1:20 PM45 °FMore clouds than sun.2 mph61%29.92 "HgN/A
12:50 PM45 °FPassing clouds.3 mph61%29.92 "HgN/A
12:20 PM43 °FPassing clouds.3 mph66%29.95 "HgN/A
11:50 AM43 °FSunny.1 mph66%29.95 "Hg10 mi
11:20 AM41 °FSunny.1 mph70%29.95 "Hg10 mi
10:50 AM41 °FSunny.1 mph70%29.95 "Hg10 mi
10:20 AM39 °FPartly sunny.2 mph75%29.98 "Hg5 mi
9:50 AM36 °FPartly sunny.1 mph87%29.98 "Hg5 mi
9:20 AM36 °FPartly sunny.2 mph87%29.98 "Hg4 mi
Weather by CustomWeather, © 2015

See weather overviewHow to use our weather pages